[[{"header":{"parameterUnit":"m.s-1","parameterCategory":1,"la1":30.2991,"la2":30.254,"lo1":-89.0895,"lo2":-89.0444,"dy":0.0017,"dx":0.0017,"nx":28,"ny":28,"refTime":"2026-02-08T03:00:00:Z","depth":0,"parameterNumber":2,"parameterNumberName":"U-component_of_WINDS"},"data":[0,0,0,0,0,0,0,0,0,0,0,0,0,0,0,0,0,0,0,0,0,0,0,0,0,0,0,0,0,0,0,0,0,0,0,0,0,0,0,0,0,0,0,0,0,0,0,0,0,0,0,0,0,0,0,0,0,0,1.3647,1.3647,0,1.3659,1.3659,1.3659,1.3607,1.3606,1.3604,1.3603,1.362,1.3622,1.3624,0,0,0,0,0,0,0,0,0,0,0,0,0,1.3586,1.3587,1.3647,1.3647,1.3648,1.3659,1.3659,1.366,1.3608,1.3606,1.3604,1.3602,1.3619,1.3622,1.3624,0,0,0,0,0,0,0,0,0,0,0,0,0,1.3607,1.3588,1.3647,1.3623,1.3621,1.3659,1.3659,1.366,1.3608,1.3606,1.3604,1.3601,1.3619,1.3621,1.3624,1.3688,0,0,1.3633,1.3634,0,0,0,0,0,0,0,0,1.3606,1.3609,1.3626,1.3625,1.3623,1.3629,1.3644,1.3669,1.3609,1.3613,1.3603,1.36,1.3625,1.3628,1.3635,1.3689,1.3689,1.3633,1.3635,1.3636,1.3637,0,0,0,0,0,0,0,1.3604,1.3608,1.3652,1.3627,1.3624,1.3614,1.3614,1.3648,1.3632,1.3613,1.3609,1.3611,1.3624,1.3632,1.3635,1.369,1.3633,1.3636,1.3637,1.3638,1.3799,1.3802,0,0,0,0,0,0,1.3605,1.3607,1.3652,1.3652,1.3608,1.3617,1.3617,1.363,1.3632,1.363,1.3613,1.3608,1.3629,1.3632,1.3635,1.3712,1.3636,1.3639,1.364,1.3797,1.38,1.3803,0,0,0,0,0,0,1.3604,1.361,1.3651,1.3629,1.3633,1.362,1.3635,1.3631,1.3639,1.3632,1.3629,1.3624,1.3627,1.3631,1.3676,1.3712,1.364,1.3643,1.3794,1.3798,1.3801,1.3864,0,0,0,0,0,0,1.3603,1.361,1.3632,1.363,1.3635,1.3689,1.3637,1.3633,1.3644,1.3638,1.3641,1.364,1.3625,1.3672,1.3678,1.3714,1.3645,1.3791,1.3796,1.38,1.3859,1.387,1.3879,0,0,0,0,0,1.3601,1.365,1.3633,1.3639,1.3662,1.3692,1.3695,1.3676,1.3647,1.3671,1.3666,1.364,1.3706,1.3677,1.3684,1.3721,1.3788,1.3794,1.38,1.3855,1.3868,1.3879,0,0,0,0,0,0,1.3658,1.3649,1.3631,1.368,1.3687,1.3683,1.3712,1.369,1.3706,1.37,1.3678,1.3679,1.3728,1.3729,1.3695,1.3784,1.3743,1.375,1.3782,1.3794,1.3804,1.3804,1.3647,0,0,0,0,0,1.3676,1.3698,1.369,1.3735,1.3739,1.3725,1.3737,1.3722,1.3729,1.3732,1.373,1.3739,1.3763,1.3778,1.3799,1.3859,1.386,1.3888,1.3899,1.3907,1.3914,1.3949,1.3962,1.3822,1.3822,1.3822,0,0,1.3714,1.3712,1.3728,1.3746,1.375,1.3776,1.3728,1.3757,1.3777,1.3737,1.3778,1.3778,1.3787,1.384,1.3863,1.3842,1.3953,1.3914,1.3921,1.3924,1.3956,1.3969,1.3981,1.3826,1.3825,1.3824,0,0,1.3797,1.3797,1.3835,1.3839,1.3845,1.3835,1.3845,1.3844,1.3842,1.3883,1.3854,1.3879,1.3919,1.3927,1.3936,1.4025,1.4003,1.4033,1.4086,1.412,1.4131,1.4141,1.4175,1.4187,1.404,1.404,1.404,0,1.3844,1.388,1.3857,1.3889,1.39,1.3863,1.3903,1.3909,1.3922,1.3931,1.3907,1.3958,1.3961,1.4017,1.4039,1.4047,1.4059,1.4033,1.4131,1.414,1.4149,1.4181,1.4194,1.4044,1.4043,1.4043,1.4042,0,1.3939,1.3965,1.3996,1.4008,1.4022,1.4058,1.4043,1.406,1.4044,1.4038,1.4082,1.4085,1.4107,1.4119,1.4104,1.4174,1.4161,1.4134,1.4092,1.4167,1.4197,1.4208,1.4049,1.4048,1.4047,1.4046,0,0,1.4057,1.4058,1.4069,1.4076,1.408,1.4101,1.4137,1.4157,1.4173,1.4184,1.4215,1.425,1.4227,1.4237,1.4224,1.4253,1.4326,1.4223,1.4223,1.4244,1.4406,1.4427,1.4442,1.4311,1.4313,1.4315,1.4406,0,1.414,1.4199,1.418,1.4241,1.4266,1.4233,1.4265,1.4273,1.4269,1.4291,1.4288,1.4314,1.4279,1.4286,1.4314,1.4312,1.4359,1.4305,1.4342,1.4344,1.4342,1.4457,1.4478,1.4564,1.4417,1.4419,1.4421,0,1.4244,1.4258,1.4321,1.4323,1.4333,1.4362,1.438,1.4401,1.4411,1.4406,1.4419,1.44,1.4438,1.4395,1.4449,1.4412,1.4427,1.4429,1.4432,1.4435,1.4388,1.4465,1.459,1.4604,1.4439,1.4437,1.4436,0,1.4326,1.4361,1.4404,1.441,1.4413,1.4435,1.4438,1.4444,1.4458,1.4475,1.4485,1.4506,1.4519,1.4537,1.4526,1.4495,1.4582,1.4538,1.4582,1.4582,1.4602,1.4601,1.4733,1.4609,1.4609,1.4609,1.4609,0,1.4421,1.4462,1.4441,1.4468,1.4513,1.4493,1.4539,1.4538,1.4545,1.4573,1.4546,1.4573,1.4555,1.4581,1.4573,1.462,1.4625,1.4624,1.4622,1.4628,1.4628,1.4638,1.4632,1.4612,1.4611,1.4611,1.461,0,1.4521,1.4509,1.4553,1.4553,1.4554,1.4588,1.4589,1.4615,1.4609,1.4645,1.4652,1.4644,1.4674,1.4664,1.4697,1.4691,1.4752,1.4741,1.4748,1.4746,1.4791,1.4788,1.4935,1.4954,1.4817,1.4818,1.4819,0,1.4583,1.4613,1.4616,1.4632,1.4637,1.4663,1.4677,1.4659,1.4676,1.469,1.4715,1.4742,1.4763,1.4813,1.4812,1.4838,1.4828,1.4878,1.4832,1.4838,1.4831,1.483,1.4834,1.4888,1.4889,1.489,1.4891,0,1.4695,1.4688,1.4708,1.4728,1.4746,1.4761,1.4774,1.4789,1.4772,1.4793,1.4822,1.4839,1.4872,1.4901,1.4924,1.4929,1.4909,1.4906,1.4918,1.4925,1.4928,1.4929,1.4775,1.4903,1.4902,1.4901,1.49,1.49,1.4778,1.4805,1.4812,1.4837,1.4844,1.4857,1.4882,1.488,1.4904,1.4929,1.4918,1.4953,1.4964,1.4993,1.5002,1.5031,1.5012,1.5029,1.5033,1.5038,1.5045,1.4923,1.5035,1.5035,1.5035,1.5034,1.5034,0,1.489,1.4894,1.4917,1.4935,1.4956,1.4933,1.4947,1.4966,1.4997,1.5009,1.503,1.5066,1.5094,1.5096,1.5123,1.5146,1.5138,1.5154,1.5153,1.5155,1.5059,1.5047,1.516,1.516,1.516,1.516,1.516,1.516,1.4951,1.4995,1.4989,1.5038,1.5041,1.5074,1.5085,1.5098,1.5107,1.5148,1.5171,1.5171,1.518,1.5208,1.5234,1.5234,1.5246,1.5266,1.5263,1.5174,1.5161,1.5149,1.5138,1.5269,1.5269,1.5356,1.5357,1.5358]},{"header":{"parameterUnit":"m.s-1","parameterCategory":1,"la1":30.2991,"la2":30.254,"lo1":-89.0895,"lo2":-89.0444,"dy":0.0017,"dx":0.0017,"nx":28,"ny":28,"refTime":"2026-02-08T03:00:00:Z","depth":0,"parameterNumber":3,"parameterNumberName":"V-component_of_WINDS"},"data":[0,0,0,0,0,0,0,0,0,0,0,0,0,0,0,0,0,0,0,0,0,0,0,0,0,0,0,0,0,0,0,0,0,0,0,0,0,0,0,0,0,0,0,0,0,0,0,0,0,0,0,0,0,0,0,0,0,0,1.2298,1.2299,0,1.2392,1.2393,1.2394,1.2421,1.2421,1.242,1.242,1.2513,1.2516,1.2519,0,0,0,0,0,0,0,0,0,0,0,0,0,1.2142,1.2144,1.2298,1.2299,1.2301,1.2391,1.2393,1.2394,1.2421,1.2421,1.242,1.242,1.2512,1.2515,1.2519,0,0,0,0,0,0,0,0,0,0,0,0,0,1.222,1.2145,1.2298,1.2325,1.2329,1.2391,1.2393,1.2394,1.2421,1.2421,1.242,1.2419,1.2511,1.2515,1.2519,1.2561,0,0,1.2533,1.2535,0,0,0,0,0,0,0,0,1.2215,1.2225,1.232,1.2324,1.2327,1.2394,1.2372,1.245,1.2422,1.2386,1.242,1.2419,1.2474,1.2481,1.25,1.2565,1.2569,1.2533,1.2536,1.2538,1.2539,0,0,0,0,0,0,0,1.221,1.2221,1.2335,1.2321,1.2326,1.2332,1.2342,1.2387,1.2433,1.2389,1.2391,1.2402,1.2476,1.2496,1.2503,1.2571,1.2533,1.2537,1.254,1.2541,1.2674,1.2675,0,0,0,0,0,0,1.22,1.2217,1.2332,1.2338,1.2268,1.2335,1.2347,1.2373,1.2432,1.2441,1.2403,1.2403,1.2489,1.2497,1.2506,1.2558,1.2538,1.2542,1.2544,1.2673,1.2674,1.2675,0,0,0,0,0,0,1.2196,1.221,1.2328,1.2278,1.2294,1.2339,1.2368,1.2376,1.2396,1.2443,1.2451,1.2415,1.2489,1.25,1.2547,1.2562,1.2544,1.2548,1.2672,1.2673,1.2674,1.2663,0,0,0,0,0,0,1.2192,1.2209,1.2225,1.2278,1.2296,1.2369,1.2369,1.2378,1.2404,1.2405,1.2456,1.2464,1.2489,1.254,1.2551,1.2567,1.2551,1.2671,1.2672,1.2674,1.2662,1.2664,1.2665,0,0,0,0,0,1.2186,1.2218,1.2226,1.224,1.2318,1.237,1.238,1.2408,1.2405,1.2422,1.2452,1.2463,1.2558,1.2545,1.2558,1.2575,1.267,1.2672,1.2674,1.2662,1.2663,1.2665,0,0,0,0,0,0,1.2165,1.2226,1.2235,1.2285,1.2322,1.2374,1.2396,1.2409,1.2447,1.2447,1.248,1.2491,1.2536,1.256,1.2544,1.2618,1.2614,1.2619,1.2601,1.2603,1.2604,1.2597,1.2555,0,0,0,0,0,1.2167,1.2204,1.2254,1.2294,1.2312,1.2351,1.2374,1.2393,1.2432,1.2447,1.2481,1.2518,1.2556,1.2581,1.2619,1.2666,1.2677,1.2684,1.2685,1.2686,1.269,1.2716,1.2719,1.2681,1.2681,1.2681,0,0,1.2169,1.2207,1.2229,1.229,1.2321,1.2358,1.2364,1.2403,1.243,1.2453,1.25,1.2526,1.2569,1.2616,1.2639,1.2638,1.2703,1.2689,1.2689,1.2692,1.2718,1.2722,1.2725,1.2683,1.2682,1.2682,0,0,1.2194,1.2226,1.2262,1.2293,1.234,1.2366,1.2374,1.2424,1.2442,1.249,1.2508,1.2541,1.2606,1.2636,1.266,1.2695,1.2707,1.2707,1.2714,1.2739,1.2742,1.2745,1.2757,1.2761,1.271,1.271,1.271,0,1.2191,1.2249,1.2279,1.2318,1.2344,1.2367,1.2403,1.2431,1.2488,1.2505,1.2503,1.2586,1.2617,1.2671,1.268,1.2698,1.2708,1.2701,1.2739,1.2742,1.2745,1.2757,1.2762,1.271,1.271,1.271,1.271,0,1.2243,1.2283,1.2306,1.2361,1.239,1.2427,1.2462,1.2487,1.2503,1.2529,1.2577,1.2614,1.266,1.2674,1.269,1.2731,1.2729,1.2733,1.273,1.2748,1.276,1.2765,1.2709,1.2709,1.2709,1.2709,0,0,1.2257,1.2328,1.2336,1.2361,1.2414,1.2445,1.2482,1.2528,1.2549,1.2587,1.2619,1.2673,1.2677,1.2704,1.2724,1.2745,1.277,1.2747,1.2748,1.275,1.2817,1.2813,1.2818,1.2778,1.2779,1.278,1.2813,0,1.2288,1.2357,1.2385,1.2441,1.2478,1.25,1.2532,1.2568,1.2593,1.2626,1.2653,1.2692,1.2694,1.2711,1.2733,1.2762,1.2784,1.276,1.2807,1.2809,1.2796,1.2824,1.2821,1.285,1.2818,1.2819,1.2819,0,1.2333,1.2372,1.2432,1.248,1.2496,1.2525,1.2569,1.2601,1.2642,1.2658,1.2688,1.2706,1.2745,1.274,1.2794,1.2777,1.2798,1.2815,1.2817,1.2822,1.2815,1.283,1.2861,1.2865,1.2827,1.2826,1.2826,0,1.2337,1.2404,1.2448,1.2469,1.2527,1.2546,1.2571,1.2611,1.2636,1.2674,1.2691,1.2732,1.2755,1.2786,1.2815,1.2808,1.2866,1.2863,1.288,1.2879,1.2891,1.289,1.2925,1.2905,1.2905,1.2905,1.2904,0,1.2368,1.2404,1.2451,1.2478,1.2518,1.255,1.2588,1.2614,1.2649,1.2681,1.2703,1.2732,1.2768,1.2801,1.2823,1.2865,1.2875,1.2889,1.2894,1.2887,1.2885,1.2901,1.2899,1.2906,1.2906,1.2905,1.2905,0,1.2379,1.2412,1.2462,1.2512,1.2526,1.2553,1.2596,1.2623,1.2648,1.2688,1.27,1.2739,1.278,1.2812,1.2864,1.2879,1.2923,1.2929,1.2909,1.2912,1.2927,1.2925,1.2974,1.2981,1.2956,1.2956,1.2956,0,1.2397,1.2425,1.2478,1.2502,1.2526,1.2564,1.259,1.2622,1.2648,1.2696,1.2716,1.2759,1.2794,1.2858,1.2891,1.2931,1.2938,1.2952,1.2944,1.2936,1.2938,1.2936,1.2939,1.2953,1.2953,1.2954,1.2954,0,1.2424,1.2439,1.2477,1.252,1.2551,1.2586,1.2621,1.2639,1.2677,1.2705,1.2748,1.2775,1.2829,1.2871,1.2914,1.2939,1.2952,1.2956,1.2962,1.2955,1.2942,1.2949,1.2912,1.2955,1.2955,1.2954,1.2954,1.2954,1.2439,1.2465,1.2507,1.2547,1.2578,1.261,1.2638,1.2667,1.2703,1.275,1.2767,1.281,1.2849,1.2909,1.2934,1.2968,1.2968,1.2977,1.2979,1.2981,1.298,1.2937,1.2976,1.2976,1.2976,1.2976,1.2976,0,1.2468,1.2496,1.2533,1.2582,1.2614,1.2625,1.2665,1.269,1.2729,1.2764,1.2799,1.2847,1.2887,1.2924,1.2965,1.2985,1.2993,1.2995,1.2994,1.2999,1.2977,1.2968,1.2989,1.2989,1.2989,1.2989,1.2989,1.2989,1.2486,1.253,1.255,1.2609,1.2637,1.268,1.2702,1.2732,1.276,1.2813,1.2847,1.2871,1.2907,1.2951,1.2988,1.2998,1.3012,1.3013,1.3024,1.3003,1.3001,1.2999,1.299,1.3016,1.3016,1.3043,1.3043,1.3043]}]]